Location: Newark
(52.0267°N, 0.2640°W)
Time: 15:18:43
(UTC+00:00)

N. Korean satellite - Visible Passes

Search period start: 06 December 2019 00:00
Search period end: 16 December 2019 00:00
Orbit: 456 x 506 km, 97.2° (Epoch: 06 December)

Date Brightness Start Highest point End Pass type
(mag) Time Alt. Az. Time Alt. Az. Time Alt. Az.
06 Dec 9.3 05:09:44 10° NE 05:12:31 21° E 05:15:15 10° SE visible
06 Dec 7.1 06:42:42 10° N 06:46:03 36° WNW 06:49:20 10° SW visible
06 Dec 8.0 17:23:01 10° S 17:26:34 42° W 17:30:07 10° NNW visible
07 Dec 10.1 04:45:33 10° ENE 04:46:49 12° E 04:48:05 10° ESE visible
07 Dec 6.4 06:17:07 10° N 06:20:42 70° WNW 06:24:12 10° SSW visible
07 Dec 6.8 16:57:22 10° S 17:01:05 81° WSW 17:04:49 10° NNW visible
08 Dec 7.1 05:51:42 10° NNE 05:55:16 59° E 05:58:44 10° S visible
08 Dec 6.8 16:32:03 10° SSE 16:35:41 53° ENE 16:39:18 10° N visible
08 Dec 9.8 18:07:01 10° SW 18:09:23 16° W 18:11:44 10° NW visible
09 Dec 8.5 05:26:30 10° NNE 05:29:43 30° E 05:32:52 10° SSE visible
09 Dec 7.6 07:00:03 10° N 07:03:01 25° WNW 07:05:57 10° WSW visible
09 Dec 8.9 17:40:31 10° SSW 17:43:45 28° W 17:46:59 10° NW visible
10 Dec 9.5 05:01:40 10° NE 05:04:05 17° E 05:06:27 10° SE visible
10 Dec 6.8 06:34:18 10° N 06:37:44 44° WNW 06:41:05 10° SW visible
10 Dec 7.6 17:14:34 10° S 17:18:12 51° W 17:21:49 10° NNW visible
11 Dec 6.4 06:08:45 10° NNE 06:12:20 87° WNW 06:15:50 10° SSW visible
11 Dec 6.6 16:49:02 10° SSE 16:52:44 83° ENE 16:56:26 10° NNW visible
11 Dec 10.2 18:25:47 10° W 18:26:39 11° W 18:27:31 10° WNW visible
12 Dec 7.5 05:43:24 10° NNE 05:46:52 47° E 05:50:14 10° S visible
12 Dec 8.0 07:17:32 10° NNW 07:19:56 17° WNW 07:22:18 10° WSW visible
12 Dec 7.0 16:23:50 10° SE 16:27:21 43° ENE 16:30:52 10° N visible
12 Dec 9.6 17:58:15 10° SW 18:00:57 19° W 18:03:38 10° NW visible
13 Dec 8.9 05:18:17 10° NE 05:21:16 25° E 05:24:12 10° SSE visible
13 Dec 7.3 06:51:35 10° N 06:54:42 29° WNW 06:57:45 10° SW visible
13 Dec 8.5 17:31:57 10° SSW 17:35:20 33° W 17:38:43 10° NNW visible
14 Dec 9.8 04:53:41 10° NE 04:55:37 14° E 04:57:30 10° ESE visible
14 Dec 6.5 06:25:54 10° N 06:29:22 54° WNW 06:32:45 10° SSW visible
14 Dec 7.1 17:06:09 10° S 17:09:49 64° W 17:13:28 10° NNW visible
15 Dec 6.6 06:00:24 10° NNE 06:03:56 76° ESE 06:07:24 10° S visible
15 Dec 6.6 16:40:43 10° SSE 16:44:22 67° ENE 16:48:00 10° N visible
15 Dec 10.0 18:16:28 10° WSW 18:18:10 13° W 18:19:53 10° WNW visible
